カタログに戻る

ONEWEB-0309

運用中通信PO
NORAD 49095·PAYLOAD·🇬🇧 United Kingdom

打ち上げ Aug 21, 2021 から Baikonur Cosmodrome

Loading…

次のパス (今後24時間)

TLE

最新Source: CelesTrak SupGP

元期: Sep 14, 2026, 13:34 UTC

1 49095C 21075W   26257.56546713  .00001807  00000+0  46606-2 0  2577
2 49095  87.9208 348.1130 0001408  99.3408  12.8256 13.17647369    11

AllMySatでONEWEB-0309をリアルタイム追跡

Download on the App Store